Date,TemperatureHighF,TemperatureAvgF,TemperatureLowF,DewpointHighF,DewpointAvgF,DewpointLowF,HumidityHigh,HumidityAvg,HumidityLow,PressureMaxIn,PressureMinIn,WindSpeedMaxMPH,WindSpeedAvgMPH,GustSpeedMaxMPH,PrecipitationSumIn
2013-1-1,26,16,2,14,9,-4,89,75,58,30.81,30.47,11,2,11,0.01
2013-1-2,10,2,-1,2,-4,-7,80,75,70,30.90,30.80,7,2,7,0.00
2013-1-3,23,8,0,8,-1,-6,77,66,47,31.07,30.95,6,1,10,0.01
2013-1-4,29,12,1,7,-2,-7,71,55,30,31.03,30.84,11,1,11,0.00
2013-1-5,39,18,3,16,4,-6,74,54,27,31.00,30.90,7,1,7,0.00
2013-1-6,39,22,12,16,6,-2,56,48,32,30.98,30.67,8,1,8,0.00
2013-1-7,42,26,16,18,10,3,65,51,32,30.67,30.41,18,1,18,0.00
2013-1-8,46,26,15,18,9,1,65,48,28,30.73,30.43,10,2,10,0.00
2013-1-9,44,26,16,20,10,2,63,51,31,30.90,30.64,7,1,7,0.00
2013-1-10,44,29,18,18,11,3,63,48,26,30.63,30.11,11,1,11,0.00
2013-1-11,35,21,-2,21,6,-12,81,53,36,30.36,29.86,43,5,43,0.00
2013-1-12,20,6,-4,-2,-7,-13,72,54,34,30.69,30.36,12,2,12,0.00
2013-1-13,1,-2,-4,-8,-10,-12,71,67,64,30.75,30.69,4,0,4,0.00
2013-1-14,21,10,-1,10,1,-11,81,68,55,30.73,30.59,3,1,11,0.00
2013-1-15,20,8,-6,3,-3,-12,83,61,39,31.10,30.71,8,1,8,0.03
2013-1-16,40,20,4,18,8,-4,79,61,39,31.15,30.92,7,0,7,0.00
2013-1-17,41,21,14,21,12,8,80,71,44,31.03,30.98,7,1,7,0.00
2013-1-18,42,29,18,22,15,9,74,57,39,30.90,30.69,8,1,8,0.00
2013-1-19,46,28,16,19,10,2,66,47,27,30.83,30.72,7,1,7,0.00
2013-1-20,46,28,18,18,9,3,55,45,25,30.79,30.59,10,2,10,0.00
2013-1-21,47,29,18,20,11,5,62,47,27,30.76,30.64,7,2,7,0.00
2013-1-22,52,34,22,20,12,3,57,41,23,30.73,30.62,8,1,8,0.00
2013-1-23,54,36,23,19,11,4,47,37,18,30.76,30.63,8,1,8,0.00
2013-1-24,51,38,26,24,17,8,65,43,29,30.69,30.54,17,2,17,0.00
2013-1-25,49,39,28,35,30,20,84,71,52,30.59,30.44,10,1,10,0.00
2013-1-26,45,38,31,39,34,27,91,84,66,30.49,30.17,21,2,21,0.21
2013-1-27,46,38,33,36,32,27,88,79,63,30.21,30.11,23,4,23,0.01
2013-1-28,42,35,25,34,29,22,90,79,63,30.17,29.95,26,4,26,0.04
2013-1-29,25,19,12,22,15,6,89,81,66,30.43,29.94,13,2,13,0.00
2013-1-30,29,16,-6,17,8,-11,86,71,55,30.83,30.43,14,2,14,0.13
2013-1-31,40,27,17,23,18,12,89,69,46,30.82,30.67,13,2,13,0.19